Flag for U.S.A. Weather past 2 weeks in Chico, California, U.S.A.

Now
59 °F

Passing clouds.


Feels Like: 57 °F
Forecast: 52 / 68 °F
Wind: 12 mph from Southeast

Location: Chico Municipal

Current Time: Mar 31, 2015 at 9:13:37 AM

Latest Report: Mar 31, 2015 at 8:47 AM


Visibility: 40 mi

Pressure: 30.09 "Hg

Humidity: 55%

Dew point: 43 °F

Location of ChicoLocation

Historic Weather in Chico — Graph

°F

Chico temperature yesterday

Maximum temperature yesterday: 82 °F (at 3:49 PM)
Minimum temperature yesterday: 50 °F (at 5:15 AM)
Average temperature yesterday: 67 °F

Past Weeks' High & Low Weather Summary

 TemperatureHumidityPressure
High84 °F (Mar 27, 2:54 PM)100% (Mar 17, 1:55 AM)30.28 "Hg (Mar 17, 1:55 AM)
Low45 °F (Mar 19, 5:15 AM)14% (Mar 28, 3:58 PM)29.90 "Hg (Mar 30, 7:55 PM)
Average61 °F55%30.08 "Hg
* Reported Mar 16 7:47 AM — Mar 31 7:47 AM, Chico, Weather by CustomWeather, © 2015

Note: Actual official high and low records may vary slightly from our data, if they occured in-between our weather recording intervals... More about our weather records

Advertising

Chico weather history for previous 24 hours

 ConditionsComfort  
Time TempWeatherWind HumidityBarometerVisibility
7:47 AM
Tue, Mar 31
57 °FPassing clouds.16 mph59%30.06 "Hg40 mi
6:47 AM55 °FPassing clouds.16 mph63%30.04 "Hg10 mi
6:35 AM55 °FPassing clouds.8 mph67%30.04 "Hg10 mi
6:15 AM55 °FPassing clouds.7 mph67%30.03 "Hg10 mi
5:55 AM57 °FClear.7 mph63%30.03 "Hg10 mi
5:35 AM55 °FClear.7 mph67%30.02 "Hg10 mi
5:15 AM55 °FClear.7 mph67%30.01 "Hg10 mi
4:55 AM55 °FClear.9 mph67%30.00 "Hg10 mi
4:35 AM57 °FClear.8 mph67%29.99 "Hg10 mi
4:15 AM57 °FClear.9 mph67%29.98 "Hg10 mi
3:55 AM57 °FClear.8 mph67%29.98 "Hg10 mi
3:15 AM59 °FClear.10 mph63%29.97 "Hg10 mi
2:55 AM59 °FClear.9 mph63%29.98 "Hg10 mi
2:15 AM59 °FClear.10 mph68%29.97 "Hg10 mi
1:55 AM61 °FClear.13 mph63%29.97 "Hg10 mi
1:35 AM63 °FClear.14 mph59%29.97 "Hg10 mi
1:15 AM63 °FClear.14 mph64%29.96 "Hg10 mi
12:35 AM64 °FClear.16 mph60%29.96 "Hg10 mi
12:15 AM64 °FClear.20 mph64%29.95 "Hg10 mi
11:55 PM
Mon, Mar 30
66 °FClear.15 mph56%29.95 "Hg10 mi
11:15 PM68 °FClear.17 mph49%29.95 "Hg10 mi
10:55 PM72 °FClear.14 mph41%29.94 "Hg10 mi
10:15 PM73 °FPassing clouds.13 mph38%29.93 "Hg10 mi
9:55 PM73 °FPassing clouds.13 mph38%29.93 "Hg10 mi
9:35 PM73 °FPassing clouds.13 mph36%29.92 "Hg10 mi
9:15 PM73 °FPassing clouds.12 mph33%29.92 "Hg10 mi
8:55 PM75 °FPassing clouds.9 mph29%29.92 "Hg10 mi
8:35 PM75 °FClear.8 mph29%29.91 "Hg10 mi
8:15 PM75 °FSunny.9 mph29%29.90 "Hg10 mi
7:55 PM75 °FSunny.9 mph31%29.90 "Hg10 mi
7:35 PM77 °FSunny.9 mph30%29.91 "Hg10 mi
7:15 PM79 °FSunny.9 mph30%29.91 "Hg10 mi
6:55 PM81 °FSunny.9 mph26%29.91 "Hg10 mi
5:58 PM82 °FMore clouds than sun.12 mph23%29.91 "HgN/A
4:56 PM82 °FMore clouds than sun.17 mph23%29.93 "Hg10 mi
3:49 PM82 °FMore clouds than sun.12 mph21%29.95 "Hg40 mi
2:47 PM81 °FBroken clouds.9 mph24%29.97 "Hg40 mi
1:47 PM81 °FBroken clouds.7 mph23%30.00 "Hg40 mi
12:53 PM77 °FBroken clouds.6 mph26%30.02 "Hg40 mi
11:50 AM75 °FBroken clouds.No wind29%30.03 "Hg40 mi
10:47 AM70 °FPartly sunny.No wind38%30.04 "Hg80 mi
9:47 AM64 °FPartly sunny.No wind43%30.04 "Hg80 mi
Weather by CustomWeather, © 2015

See weather overviewHow to use our weather pages